Погода в Пицунде

Абхазия     43°09′34″N   40°20′19″E
темп.,
°C
ветер,
м/с
пор.,
м/с
влажн.,
%
обл.,
%
осадки,
мм/ч
давл.,
гПа
погр.,
м
21 января, пт
пт2100:000в3459100 0.0 1025372
03:00+1в6765100 0.1 1025387
06:00+1вюв567671 0.3 1024411
09:00+2вюв567437 0.3 1024324
12:00+4юв67723 0.0 1024570
15:00+5вюв787187 0.0 1021420
18:00+5вюв686999 0.0 1020358
21:00+5в6864100 0.0 1018308
22 января, сб
сб2200:00+6в696285 0.0 1017317
03:00+7вюв6963100 0.1 1015310
06:00+7всв7866100 0.3 1015322
09:00+5в7985100 3.4 1017637
12:00+6в6683100 4.6 1016608
15:00+7ссв4575100 6.3 1014165
18:00+7всв4772100 0.6 1013338
21:00+7в4674100 1.0 1012283
23 января, вс
вс2300:00+6в5781100 1.2 1011443
03:00+8св2374100 2.5 100848
06:00+7вюв5776100 0.1 1007279
09:00+7ю3474100 0.6 1010493
12:00+7юв3472100 0.1 1010460
15:00+7вюв6876100 0.6 1009455
18:00+6вюв5770100 0.3 1011492
21:00+7вюв3570100 1.3 1011201
24 января, пн
пн2400:00+6всв1268100 0.3 1011105
03:00+6в347295 0.3 1013376
06:00+6юв5777100 0.4 1014492
09:00+5юв71087100 2.7 1017906
12:00+5ююв458491 6.2 1020556
15:00+5ю3379100 6.8 1020553
18:00+5сз5481100 0.0 1020468
21:00+4ссз5581100 0.1 1020507
25 января, вт
вт2500:00+3ссз5685100 0.4 1021498
03:00+3сз4692100 2.6 1022451
06:00+2зсз3498100 4.5 1022358
09:00+2зсз6795100 10.4 1024510
12:00+3зсз5583100 0.8 1026721
15:00+2зсз238294 1.2 1027440
18:00+2ссв1171100 0.1 1026286
21:00+2ссв2267100 0.1 1025141